When you browse on this site, cookies collect data to enhance your experience and personalize the content and advertising you see.
Visit our Privacy Policy to learn more. By continuing to use the site, you agree to this use of cookies and data.
  • In Hungary
  • List of Countries
  • For 7 days
  • Water Temperature
  • Weather Map
  • News
  • Weather Widgets
  • user-avatar
    Login

    Hourly Weather Blagoevgrad

    Today, 18 November, Monday

    Time Temperature Precipitation Wind Pressure Humidity
    00:00 +12°C° 0 mm 2 mps 721 mmHg 86%
    01:00 +13°C° 0 mm 2 mps 720 mmHg 86%
    02:00 +13°C° 0 mm 2 mps 721 mmHg 84%
    03:00 +13°C° 0.1 mm 2 mps 720 mmHg 85%
    04:00 +13°C° 0.1 mm 2 mps 720 mmHg 87%
    05:00 +13°C° 0.1 mm 2 mps 720 mmHg 88%
    06:00 +13°C° 0 mm 2 mps 720 mmHg 89%
    07:00 +13°C° 0 mm 2 mps 720 mmHg 90%
    08:00 +13°C° 0 mm 2 mps 721 mmHg 92%
    09:00 +14°C° 0.2 mm 2 mps 721 mmHg 85%
    10:00 +16°C° 0.2 mm 2 mps 721 mmHg 78%
    11:00 +17°C° 0.2 mm 2 mps 721 mmHg 71%
    12:00 +16°C° 1.2 mm 2 mps 721 mmHg 75%
    13:00 +15°C° 1.2 mm 2 mps 721 mmHg 79%
    14:00 +14°C° 1.2 mm 2 mps 721 mmHg 83%
    15:00 +14°C° 0.1 mm 2 mps 721 mmHg 84%
    16:00 +13°C° 0.1 mm 1 mps 721 mmHg 84%
    17:00 +13°C° 0.1 mm 1 mps 721 mmHg 85%
    18:00 +12°C° 0 mm 1 mps 722 mmHg 85%
    19:00 +12°C° 0 mm 1 mps 722 mmHg 85%
    20:00 +11°C° 0 mm 1 mps 723 mmHg 85%
    21:00 +11°C° 0 mm 1 mps 723 mmHg 84%
    22:00 +11°C° 0 mm 1 mps 723 mmHg 84%
    23:00 +11°C° 0 mm 1 mps 724 mmHg 84%

    Tomorrow, 19 November, Tuesday

    Time Temperature Precipitation Wind Pressure Humidity
    00:00 +11°C° 0 mm 1 mps 724 mmHg 82%
    01:00 +11°C° 0 mm 1 mps 724 mmHg 81%
    02:00 +10°C° 0 mm 1 mps 724 mmHg 80%
    03:00 +10°C° 0 mm 1 mps 724 mmHg 80%
    04:00 +10°C° 0 mm 1 mps 724 mmHg 80%
    05:00 +10°C° 0 mm 1 mps 724 mmHg 79%
    06:00 +10°C° 0 mm 1 mps 724 mmHg 79%
    07:00 +10°C° 0 mm 1 mps 724 mmHg 80%
    08:00 +11°C° 0 mm 1 mps 724 mmHg 80%
    09:00 +12°C° 0 mm 1 mps 725 mmHg 76%
    10:00 +14°C° 0 mm 1 mps 725 mmHg 73%
    11:00 +16°C° 0 mm 1 mps 725 mmHg 69%
    12:00 +18°C° 0 mm 1 mps 725 mmHg 68%
    13:00 +18°C° 0 mm 1 mps 724 mmHg 66%
    14:00 +19°C° 0 mm 1 mps 724 mmHg 65%
    15:00 +18°C° 0 mm 1 mps 724 mmHg 71%
    16:00 +15°C° 0 mm 1 mps 723 mmHg 78%
    17:00 +14°C° 0 mm 1 mps 723 mmHg 85%
    18:00 +14°C° 0 mm 1 mps 723 mmHg 85%
    19:00 +13°C° 0 mm 1 mps 723 mmHg 86%
    20:00 +13°C° 0 mm 2 mps 723 mmHg 87%
    21:00 +12°C° 0 mm 1 mps 723 mmHg 88%
    22:00 +12°C° 0 mm 1 mps 723 mmHg 89%
    23:00 +12°C° 0 mm 1 mps 723 mmHg 90%

    Day after tomorrow, 20 November, Wednesday

    Time Temperature Precipitation Wind Pressure Humidity
    00:00 +12°C° 0 mm 1 mps 723 mmHg 89%
    01:00 +12°C° 0 mm 1 mps 722 mmHg 89%
    02:00 +12°C° 0 mm 1 mps 722 mmHg 89%
    03:00 +12°C° 0 mm 2 mps 722 mmHg 86%
    04:00 +12°C° 0 mm 2 mps 721 mmHg 83%
    05:00 +12°C° 0 mm 2 mps 721 mmHg 80%
    06:00 +12°C° 0 mm 2 mps 721 mmHg 79%
    07:00 +12°C° 0 mm 2 mps 720 mmHg 78%
    08:00 +12°C° 0 mm 2 mps 720 mmHg 78%
    09:00 +12°C° 0.3 mm 2 mps 720 mmHg 78%
    10:00 +13°C° 0.3 mm 2 mps 721 mmHg 79%
    11:00 +13°C° 0.3 mm 2 mps 721 mmHg 80%
    12:00 +13°C° 1.8 mm 2 mps 720 mmHg 83%
    13:00 +13°C° 1.8 mm 2 mps 720 mmHg 86%
    14:00 +13°C° 1.8 mm 2 mps 720 mmHg 89%
    15:00 +13°C° 0.5 mm 2 mps 720 mmHg 89%
    16:00 +13°C° 0.5 mm 2 mps 720 mmHg 89%
    17:00 +12°C° 0.5 mm 1 mps 720 mmHg 89%
    18:00 +12°C° 0 mm 1 mps 720 mmHg 89%
    19:00 +11°C° 0 mm 1 mps 720 mmHg 90%
    20:00 +11°C° 0 mm 1 mps 721 mmHg 90%
    21:00 +11°C° 0 mm 1 mps 721 mmHg 90%
    22:00 +11°C° 0 mm 1 mps 721 mmHg 89%
    23:00 +11°C° 0 mm 1 mps 721 mmHg 89%

    21 November, Thursday

    Time Temperature Precipitation Wind Pressure Humidity
    00:00 +10°C° 0 mm 1 mps 721 mmHg 88%
    01:00 +10°C° 0 mm 1 mps 721 mmHg 88%
    02:00 +10°C° 0 mm 1 mps 721 mmHg 87%
    03:00 +10°C° 0 mm 1 mps 721 mmHg 87%
    04:00 +10°C° 0 mm 1 mps 721 mmHg 86%
    05:00 +9°C° 0 mm 1 mps 721 mmHg 86%
    06:00 +9°C° 0 mm 1 mps 721 mmHg 85%
    07:00 +9°C° 0 mm 1 mps 721 mmHg 84%
    08:00 +9°C° 0 mm 1 mps 721 mmHg 83%
    09:00 +11°C° 0 mm 1 mps 721 mmHg 77%
    10:00 +13°C° 0 mm 1 mps 721 mmHg 71%
    11:00 +15°C° 0 mm 1 mps 722 mmHg 65%
    12:00 +16°C° 0 mm 1 mps 721 mmHg 64%
    13:00 +16°C° 0 mm 1 mps 721 mmHg 64%
    14:00 +16°C° 0 mm 1 mps 721 mmHg 63%
    15:00 +15°C° 0 mm 1 mps 720 mmHg 69%
    16:00 +14°C° 0 mm 1 mps 720 mmHg 74%
    17:00 +12°C° 0 mm 0 mps 720 mmHg 80%
    18:00 +13°C° 0 mm 1 mps 720 mmHg 82%
    19:00 +12°C° 0 mm 1 mps 720 mmHg 83%
    20:00 +12°C° 0 mm 1 mps 720 mmHg 85%
    21:00 +12°C° 0.2 mm 1 mps 720 mmHg 86%
    22:00 +12°C° 0.2 mm 1 mps 721 mmHg 87%
    23:00 +12°C° 0.2 mm 1 mps 721 mmHg 88%

    22 November, Friday

    Time Temperature Precipitation Wind Pressure Humidity
    00:00 +12°C° 0.2 mm 1 mps 720 mmHg 89%
    01:00 +12°C° 0.2 mm 1 mps 720 mmHg 91%
    02:00 +12°C° 0.2 mm 1 mps 720 mmHg 93%
    03:00 +12°C° 0.4 mm 1 mps 720 mmHg 93%
    04:00 +12°C° 0.4 mm 1 mps 720 mmHg 94%
    05:00 +12°C° 0.4 mm 1 mps 720 mmHg 94%
    06:00 +12°C° 1.7 mm 1 mps 720 mmHg 95%
    07:00 +12°C° 1.7 mm 1 mps 720 mmHg 96%
    08:00 +12°C° 1.7 mm 1 mps 720 mmHg 97%
    09:00 +12°C° 0.7 mm 1 mps 720 mmHg 95%
    10:00 +13°C° 0.7 mm 1 mps 721 mmHg 93%
    11:00 +13°C° 0.7 mm 1 mps 721 mmHg 91%
    12:00 +13°C° 0.6 mm 1 mps 721 mmHg 91%
    13:00 +13°C° 0.6 mm 1 mps 720 mmHg 92%
    14:00 +13°C° 0.6 mm 1 mps 720 mmHg 92%
    15:00 +13°C° 1 mm 1 mps 720 mmHg 93%
    16:00 +12°C° 1 mm 1 mps 720 mmHg 95%
    17:00 +12°C° 1 mm 1 mps 720 mmHg 96%
    18:00 +12°C° 0.5 mm 1 mps 721 mmHg 96%
    19:00 +12°C° 0.5 mm 1 mps 721 mmHg 95%
    20:00 +12°C° 0.5 mm 1 mps 721 mmHg 95%
    21:00 +12°C° 0.1 mm 1 mps 721 mmHg 95%
    22:00 +11°C° 0.1 mm 1 mps 721 mmHg 95%
    23:00 +10°C° 0.1 mm 0 mps 722 mmHg 95%

    23 November, Saturday

    Time Temperature Precipitation Wind Pressure Humidity
    00:00 +10°C° 0 mm 0 mps 722 mmHg 95%
    01:00 +10°C° 0 mm 0 mps 722 mmHg 95%
    02:00 +10°C° 0 mm 0 mps 722 mmHg 95%
    03:00 +10°C° 0 mm 0 mps 721 mmHg 95%
    04:00 +9°C° 0 mm 0 mps 721 mmHg 95%
    05:00 +10°C° 0 mm 1 mps 721 mmHg 95%
    06:00 +10°C° 0 mm 1 mps 721 mmHg 94%
    07:00 +11°C° 0 mm 1 mps 721 mmHg 94%
    08:00 +11°C° 0 mm 1 mps 721 mmHg 93%
    09:00 +11°C° 0.1 mm 1 mps 722 mmHg 90%
    10:00 +12°C° 0.1 mm 1 mps 722 mmHg 87%
    11:00 +13°C° 0.1 mm 1 mps 722 mmHg 84%
    12:00 +13°C° 0.5 mm 1 mps 721 mmHg 85%
    13:00 +13°C° 0.5 mm 1 mps 721 mmHg 86%
    14:00 +13°C° 0.5 mm 1 mps 720 mmHg 87%
    15:00 +12°C° 0.2 mm 1 mps 720 mmHg 88%
    16:00 +12°C° 0.2 mm 1 mps 720 mmHg 89%
    17:00 +11°C° 0.2 mm 1 mps 720 mmHg 90%
    18:00 +11°C° 0 mm 1 mps 720 mmHg 91%
    19:00 +11°C° 0 mm 1 mps 720 mmHg 92%
    20:00 +11°C° 0 mm 1 mps 720 mmHg 93%
    21:00 +10°C° 0 mm 1 mps 720 mmHg 93%
    22:00 +10°C° 0 mm 1 mps 720 mmHg 93%
    23:00 +10°C° 0 mm 1 mps 720 mmHg 94%
    Show more